| time (UTC) | temp F | wind direction | speed knots | gust knots | rain 1hr in | rain 24hr in | rain mn in | humidity % | barometer mb |
| 20260507191636 | 62 | 339 | 1.7 | 5.2 | 0.00 | 0.00 | 0.00 | 42 | 1007.9 |
| 20260507184339 | 62 | 338 | 0.9 | 10.4 | 0.00 | 0.00 | 0.00 | 41 | 1008.2 |
| 20260507183353 | 62 | 343 | 2.6 | 10.4 | 0.00 | 0.00 | 0.00 | 40 | 1008.2 |
| 20260507181221 | 61 | 338 | 1.7 | 9.6 | 0.00 | 0.00 | 0.00 | 41 | 1008.3 |
| 20260507180156 | 61 | 328 | 3.5 | 9.6 | 0.00 | 0.00 | 0.00 | 43 | 1008.2 |
| 20260507175207 | 60 | 338 | 1.7 | 8.7 | 0.00 | 0.00 | 0.00 | 44 | 1008.1 |
| 20260507030116 | 54 | 349 | 0.0 | 0.0 | 0.00 | 0.00 | 0.00 | 44 | 1006.3 |
| 20260507025049 | 55 | 345 | 0.0 | 1.7 | 0.00 | 0.00 | 0.00 | 43 | 1006.3 |
| 20260507024055 | 56 | 343 | 0.0 | 0.0 | 0.00 | 0.00 | 0.00 | 41 | 1006.3 |
| 20260507023056 | 59 | 341 | 0.0 | 0.0 | 0.00 | 0.00 | 0.00 | 38 | 1006.3 |
| 20260507022117 | 60 | 339 | 0.0 | 0.0 | 0.00 | 0.00 | 0.00 | 34 | 1006.3 |
| 20260507021101 | 62 | 338 | 0.0 | 0.0 | 0.00 | 0.00 | 0.00 | 29 | 1006.1 |
| 20260507020105 | 63 | 338 | 0.0 | 0.0 | 0.00 | 0.00 | 0.00 | 28 | 1006.3 |
| 20260507015111 | 64 | 338 | 0.9 | 3.5 | 0.00 | 0.00 | 0.00 | 27 | 1006.2 |
| 20260507011919 | 65 | 338 | 0.9 | 2.6 | 0.00 | 0.00 | 0.00 | 27 | 1006.7 |
| 20260507010921 | 65 | 340 | 0.9 | 6.1 | 0.00 | 0.00 | 0.00 | 27 | 1006.9 |
| 20260507005909 | 65 | 339 | 0.9 | 6.1 | 0.00 | 0.00 | 0.00 | 26 | 1007.2 |
| 20260507004846 | 66 | 338 | 0.9 | 5.2 | 0.00 | 0.00 | 0.00 | 27 | 1007.3 |
| 20260507002736 | 67 | 349 | 0.9 | 6.1 | 0.00 | 0.00 | 0.00 | 24 | 1007.8 |
| 20260507001721 | 67 | 237 | 0.9 | 7.8 | 0.00 | 0.00 | 0.00 | 25 | 1008.1 |
| 20260507000713 | 66 | 276 | 0.9 | 8.7 | 0.00 | 0.00 | 0.00 | 26 | 1008.2 |
| 20260506235657 | 67 | 311 | 1.7 | 8.7 | 0.00 | 0.00 | 0.00 | 26 | 1008.4 |
| 20260506233538 | 66 | 211 | 1.7 | 7.8 | 0.00 | 0.00 | 0.00 | 25 | 1008.6 |
| 20260506232554 | 66 | 217 | 1.7 | 7.8 | 0.00 | 0.00 | 0.00 | 26 | 1008.8 |
| 20260506231550 | 66 | 217 | 1.7 | 7.0 | 0.00 | 0.00 | 0.00 | 26 | 1009.0 |
| 20260506230538 | 65 | 220 | 1.7 | 7.0 | 0.00 | 0.00 | 0.00 | 26 | 1009.1 |
| 20260506225530 | 64 | 291 | 1.7 | 7.0 | 0.00 | 0.00 | 0.00 | 27 | 1009.1 |
| 20260506224522 | 64 | 290 | 0.9 | 7.8 | 0.00 | 0.00 | 0.00 | 28 | 1009.2 |
| 20260506223538 | 64 | 297 | 1.7 | 7.8 | 0.00 | 0.00 | 0.00 | 27 | 1009.2 |
| 20260506222505 | 64 | 1 | 1.7 | 8.7 | 0.00 | 0.00 | 0.00 | 25 | 1009.5 |
| 20260506220346 | 64 | 344 | 1.7 | 7.0 | 0.00 | 0.00 | 0.00 | 28 | 1010.0 |
| 20260506215338 | 64 | 338 | 1.7 | 8.7 | 0.00 | 0.00 | 0.00 | 27 | 1010.2 |
| 20260506213141 | 63 | 347 | 1.7 | 7.8 | 0.00 | 0.00 | 0.00 | 27 | 1010.6 |
| 20260506212130 | 62 | 349 | 1.7 | 8.7 | 0.00 | 0.00 | 0.00 | 26 | 1010.8 |
| 20260506211140 | 63 | 340 | 1.7 | 13.0 | 0.00 | 0.00 | 0.00 | 25 | 1011.0 |
| 20260506205002 | 62 | 348 | 2.6 | 8.7 | 0.00 | 0.00 | 0.00 | 25 | 1011.7 |
| 20260506204002 | 61 | 340 | 2.6 | 9.6 | 0.00 | 0.00 | 0.00 | 25 | 1011.9 |
| 20260506203008 | 60 | 339 | 1.7 | 9.6 | 0.00 | 0.00 | 0.00 | 27 | 1012.1 |
| 20260506202009 | 59 | 339 | 2.6 | 8.7 | 0.00 | 0.00 | 0.00 | 26 | 1012.4 |
| 20260506201027 | 59 | 338 | 2.6 | 8.7 | 0.00 | 0.00 | 0.00 | 25 | 1012.6 |
| 20260506200041 | 58 | 338 | 2.6 | 9.6 | 0.00 | 0.00 | 0.00 | 25 | 1012.8 |
| 20260506195030 | 58 | 338 | 3.5 | 9.6 | 0.00 | 0.00 | 0.00 | 24 | 1013.0 |